North Bennington, VT

9:38 AM EDT on July 29, 2016 (GMT -0400)
Morse State

Weather History for KDDH - October, 2014

Change the Weather History Date:

Tuesday, October 14, 2014

  Actual Average Record
Temperature  
Mean Temperature 66 °F 48 °F  
Max Temperature 75 °F 59 °F 75 °F (2000)
Min Temperature 57 °F 37 °F 27 °F (2006)
Degree Days  
Heating Degree Days 0 17  
Month to date heating degree days 158 206  
Since 1 July heating degree days 405 484  
Cooling Degree Days 1 0  
Month to date cooling degree days 1 0  
Year to date cooling degree days 298 311  
Growing Degree Days 15 (Base 50)    
Moisture  
Dew Point 58 °F    
Average Humidity 73    
Maximum Humidity 84    
Minimum Humidity 61    
Precipitation  
Precipitation 0.00 in 0.13 in 0.82 in (2012)
Month to date precipitation 0.78 1.74  
Year to date precipitation 27.76 32.85  
Sea Level Pressure  
Sea Level Pressure 30.16 in    
Wind  
Wind Speed 8 mph (South)    
Max Wind Speed 18 mph    
Max Gust Speed 27 mph    
Visibility 10 miles    
Events      
T = Trace of Precipitation, MM = Missing Value Source: NWS Daily Summary

Daily Weather History Graph

Daily Weather History Graph

Search for Another Location

Airport or City:

Trip Planner

Search our weather history database for the weather conditions in past years. The results will help you decide how hot, cold, wet, or windy it might be!

Date:

Astronomy

Oct. 14, 2014 Rise Set
Actual Time 7:05 AM EDT 6:12 PM EDT
Civil Twilight 6:36 AM EDT 6:40 PM EDT
Nautical Twilight 6:03 AM EDT 7:13 PM EDT
Astronomical Twilight 5:30 AM EDT 7:46 PM EDT
Moon 11:11 PM EDT (10/14) 1:08 PM EDT (10/14)
Length of Visible Light 12h 03m
Length of Day
11h 06m
Waning Gibbous, 61% of the Moon is Illuminated
Oct 14
Waning Gibbous
Oct 15
Last Quarter
Oct 23
New
Oct 30
First Quarter
Nov 6
Full

Hourly Weather History & Observations

Time (EDT) Temp. Dew Point Humidity Pressure Visibility Wind Dir Wind Speed Gust Speed Precip Events Conditions
12:54 AM 57.0 °F 52.0 °F 83% 30.23 in 10.0 mi Calm Calm - N/A   Overcast
1:54 AM 60.1 °F 55.0 °F 83% 30.21 in 10.0 mi Variable 3.5 mph - N/A   Overcast
2:26 AM 60.1 °F 55.0 °F 83% 30.21 in 10.0 mi SSE 3.5 mph - N/A   Overcast
2:54 AM 60.1 °F 55.9 °F 86% 30.19 in 10.0 mi Variable 3.5 mph - N/A   Overcast
3:54 AM 60.1 °F 55.9 °F 86% 30.18 in 10.0 mi Calm Calm - N/A   Overcast
4:54 AM 63.0 °F 57.9 °F 84% 30.18 in 10.0 mi Calm Calm - N/A   Mostly Cloudy
5:09 AM 60.1 °F 55.9 °F 86% 30.18 in 10.0 mi North 3.5 mph - N/A   Mostly Cloudy
5:20 AM 60.1 °F 57.0 °F 90% 30.18 in 10.0 mi Calm Calm - N/A   Overcast
5:54 AM 62.1 °F 57.9 °F 86% 30.18 in 10.0 mi Calm Calm - N/A   Overcast
6:04 AM 62.1 °F 57.9 °F 86% 30.18 in 10.0 mi Calm Calm - N/A   Overcast
6:54 AM 64.0 °F 59.0 °F 84% 30.19 in 10.0 mi South 5.8 mph - N/A   Overcast
7:04 AM 64.0 °F 59.0 °F 84% 30.19 in 10.0 mi Variable 6.9 mph - N/A   Overcast
7:54 AM 64.9 °F 59.0 °F 81% 30.19 in 10.0 mi South 10.4 mph 19.6 mph N/A   Partly Cloudy
8:18 AM 64.9 °F 60.1 °F 84% 30.19 in 10.0 mi SE 6.9 mph - N/A   Mostly Cloudy
8:54 AM 66.9 °F 60.1 °F 79% 30.20 in 10.0 mi Variable 6.9 mph - N/A   Overcast
9:54 AM 68.0 °F 61.0 °F 78% 30.20 in 10.0 mi Variable 5.8 mph - N/A   Overcast
10:54 AM 70.0 °F 61.0 °F 73% 30.19 in 10.0 mi South 15.0 mph - N/A   Overcast
11:54 AM 73.0 °F 61.0 °F 66% 30.17 in 10.0 mi South 12.7 mph 20.7 mph N/A   Mostly Cloudy
12:54 PM 72.0 °F 61.0 °F 68% 30.16 in 10.0 mi South 13.8 mph 24.2 mph N/A   Overcast
1:03 PM 73.0 °F 60.1 °F 64% 30.16 in 10.0 mi South 10.4 mph 19.6 mph N/A   Overcast
1:11 PM 73.0 °F 60.1 °F 64% 30.16 in 10.0 mi South 12.7 mph - N/A   Overcast
1:21 PM 73.9 °F 61.0 °F 64% 30.15 in 10.0 mi South 9.2 mph 20.7 mph N/A   Overcast
1:54 PM 73.0 °F 61.0 °F 66% 30.13 in 10.0 mi SSE 13.8 mph - N/A   Overcast
2:54 PM 72.0 °F 60.1 °F 66% 30.13 in 10.0 mi SE 9.2 mph - N/A   Overcast
3:54 PM 72.0 °F 59.0 °F 64% 30.12 in 10.0 mi South 8.1 mph - N/A   Overcast
4:54 PM 73.0 °F 59.0 °F 61% 30.11 in 10.0 mi South 10.4 mph - N/A   Overcast
5:54 PM 72.0 °F 57.0 °F 59% 30.11 in 10.0 mi South 11.5 mph - N/A   Scattered Clouds
6:54 PM 70.0 °F 55.9 °F 61% 30.11 in 10.0 mi SSE 9.2 mph - N/A   Clear
7:54 PM 68.0 °F 57.0 °F 68% 30.10 in 10.0 mi South 9.2 mph 17.3 mph N/A   Clear
8:54 PM 68.0 °F 57.9 °F 70% 30.10 in 10.0 mi Variable 5.8 mph - N/A   Partly Cloudy
9:54 PM 69.1 °F 57.9 °F 68% 30.08 in 10.0 mi SSE 11.5 mph - N/A   Overcast
10:54 PM 70.0 °F 59.0 °F 68% 30.09 in 10.0 mi South 9.2 mph - N/A   Overcast
11:54 PM 69.1 °F 59.0 °F 70% 30.08 in 10.0 mi South 10.4 mph - N/A   Overcast